Zurück zum Katalog

COSMOS 2528 DEB

AktivLEO
NORAD 45038·DEBRIS·🇷🇺 Russia

Gestartet Oct 25, 2018 von Plesetsk Cosmodrome

Loading…

Nächste Überflüge (nächste 24 Stunden)

TLE

AktuellSource: Space-Track

Epoche: Sep 14, 2026, 14:31 UTC

1 45038U 18082D   26257.60527824  .00000657  00000-0  49121-3 0  9993
2 45038  67.1660 219.9857 0021321 232.9500 126.9638 14.00617271339457

Verfolge COSMOS 2528 DEB in Echtzeit mit AllMySat

Download on the App Store